Location: D�rnast
(49.6426°N, 11.9755°E)
Time: 03:01:35
(UTC+00:00)

Cosmos 1898 Rocket - Pass Details

Date: 24 January 2021
Orbit: 754 x 783 km, 74.0° (Epoch: 24 February)

Event Time Altitude Azimuth Distance (km) Brightness Sun altitude
Rises 17:32:11 0° 187° (S) 3,237 7.0 -15.6°
Reaches altitude 10° 17:34:36 10° 183° (S) 2,310 6.1 -16.0°
Maximum altitude 17:39:42 54° 107° (ESE) 931 3.6 -16.8°
Enters shadow 17:43:14 20° 37° (NE) 1,742 4.9 -17.4°
